Change the Weather History Date:

Friday, April 18, 2014

  Actual Average Record
Temperature  
Mean Temperature 61 °F 53 °F  
Max Temperature 82 °F 70 °F 95 °F (1987)
Min Temperature 40 °F 36 °F 22 °F (1944)
Degree Days  
Heating Degree Days 4 12  
Month to date heating degree days 260 267  
Since 1 July heating degree days 5229 5276  
Cooling Degree Days 0 0  
Month to date cooling degree days 5 0  
Year to date cooling degree days 5 0  
Growing Degree Days 10 (Base 50)    
Moisture  
Dew Point 35 °F    
Average Humidity 47    
Maximum Humidity 79    
Minimum Humidity 15    
Precipitation  
Precipitation 0.00 in 0.05 in 1.09 in (1942)
Month to date precipitation 0.38 0.63  
Year to date precipitation 0.91 2.14  
Sea Level Pressure  
Sea Level Pressure 29.90 in    
Wind  
Wind Speed 14 mph (South)    
Max Wind Speed 26 mph    
Max Gust Speed 33 mph    
Visibility 9 miles    
Events      
T = Trace of Precipitation, MM = Missing Value Source: NWS Daily Summary

Daily Weather History Graph

Daily Weather History Graph

Search for Another Location

Airport or City:

Trip Planner

Search our weather history database for the weather conditions in past years. The results will help you decide how hot, cold, wet, or windy it might be!

Date:

Astronomy

Apr. 18, 2014 Rise Set
Actual Time 6:11 AM MDT 7:29 PM MDT
Civil Twilight 5:43 AM MDT 7:57 PM MDT
Nautical Twilight 5:10 AM MDT 8:30 PM MDT
Astronomical Twilight 4:36 AM MDT 9:04 PM MDT
Moon 11:14 PM MDT (4/18) 8:37 AM MDT (4/18)
Length of Visible Light 14h 13m
Length of Day
13h 18m
Waning Gibbous, 86% of the Moon is Illuminated
Apr 18
Waning Gibbous
Apr 22
Last Quarter
Apr 29
New
May 6
First Quarter
May 14
Full

Hourly Weather History & Observations

Time (MDT) Temp. Windchill Dew Point Humidity Pressure Visibility Wind Dir Wind Speed Gust Speed Precip Events Conditions
12:53 AM 42.1 °F 33.3 °F 33.1 °F 70% 30.07 in 8.0 mi South 19.6 mph - N/A   Clear
1:53 AM 42.1 °F 32.8 °F 34.0 °F 73% 30.05 in 7.0 mi South 21.9 mph 31.1 mph N/A   Clear
2:53 AM 42.1 °F 35.2 °F 34.0 °F 73% 30.04 in 7.0 mi SSW 12.7 mph - N/A   Clear
3:53 AM 41.0 °F 34.7 °F 35.1 °F 79% 30.02 in 7.0 mi SSW 10.4 mph - N/A   Clear
4:53 AM 41.0 °F 34.3 °F 35.1 °F 79% 30.01 in 7.0 mi South 11.5 mph - N/A   Clear
5:53 AM 39.9 °F 33.4 °F 34.0 °F 79% 30.01 in 7.0 mi SSW 10.4 mph - N/A   Clear
6:53 AM 41.0 °F 35.8 °F 35.1 °F 79% 30.02 in 7.0 mi SW 8.1 mph - N/A   Clear
7:53 AM 46.0 °F 44.8 °F 36.0 °F 68% 30.02 in 8.0 mi Variable 3.5 mph - N/A   Clear
8:53 AM 53.1 °F - 37.0 °F 55% 30.00 in 9.0 mi West 9.2 mph - N/A   Clear
9:53 AM 55.9 °F - 37.9 °F 51% 29.99 in 9.0 mi Calm Calm - N/A   Clear
10:53 AM 63.0 °F - 39.0 °F 41% 29.96 in 10.0 mi Calm Calm - N/A   Clear
11:53 AM 66.9 °F - 37.0 °F 33% 29.95 in 10.0 mi SSW 5.8 mph - N/A   Clear
12:53 PM 73.0 °F - 34.0 °F 24% 29.90 in 10.0 mi Variable 6.9 mph - N/A   Clear
1:53 PM 77.0 °F - 35.1 °F 22% 29.85 in 10.0 mi SE 13.8 mph 20.7 mph N/A   Clear
2:53 PM 81.0 °F - 30.9 °F 16% 29.81 in 10.0 mi SSE 15.0 mph 21.9 mph N/A   Clear
3:53 PM 82.0 °F - 30.0 °F 15% 29.78 in 10.0 mi South 11.5 mph 24.2 mph N/A   Clear
4:53 PM 81.0 °F - 34.0 °F 18% 29.76 in 10.0 mi South 20.7 mph 28.8 mph N/A   Clear
5:53 PM 79.0 °F - 30.9 °F 17% 29.75 in 10.0 mi South 23.0 mph 28.8 mph N/A   Clear
6:53 PM 73.9 °F - 37.0 °F 26% 29.76 in 10.0 mi South 19.6 mph - N/A   Clear
7:53 PM 70.0 °F - 37.9 °F 31% 29.76 in 10.0 mi SSE 20.7 mph - N/A   Clear
9:53 PM 66.0 °F - 39.9 °F 38% 29.77 in 10.0 mi South 20.7 mph - N/A   Clear
10:53 PM 64.0 °F - 39.9 °F 41% 29.75 in 10.0 mi South 21.9 mph - N/A   Clear
11:53 PM 62.1 °F - 37.9 °F 41% 29.74 in 10.0 mi South 18.4 mph - N/A   Clear